Theta_e
350 351 351 351 351 351 351 350 350 351 349 348 350 350 351 350 349 348 345 342 339 338 337 333 332 333 334 333 333 333 332 330 329 330 330 331 331 331 331 330 330 330 331
348 351 351 351 351 351 351 350 350 351 350 348 349 351 349 350 349 349 346 343 339 337 338 336 335 333 333 332 333 334 333 333 332 331 331 331 331 331 331 331 331 330 329
348 350 351 351 351 351 350 350 350 351 350 349 351 351 349 350 349 348 347 344 341 338 336 336 333 335 336 334 334 335 334 334 333 332 332 332 332 331 330 330 330 329 329
348 350 350 351 351 351 351 351 351 351 351 350 349 352 351 350 349 347 347 345 343 341 338 336 336 332 335 336 334 334 335 334 333 333 333 333 332 332 331 331 330 329 329
348 349 350 350 350 350 350 351 351 351 351 351 349 351 351 350 348 347 346 345 344 343 342 337 337 336 334 335 336 335 335 335 334 334 332 332 332 332 332 330 329 329 329
349 349 350 351 351 351 351 350 350 351 351 351 350 350 350 349 349 348 346 345 345 344 344 343 338 338 336 335 337 337 337 334 335 335 334 333 333 332 331 330 329 329 330
349 349 350 351 351 352 352 352 351 350 350 351 351 349 349 350 350 349 348 346 346 345 345 344 341 340 338 338 336 338 338 338 337 337 335 332 333 332 331 330 329 329 328
350 350 351 351 352 352 352 353 352 352 351 351 351 351 349 349 350 352 352 349 346 345 346 345 344 343 341 339 338 337 337 337 338 337 335 330 333 332 331 330 329 328 327
352 352 352 353 353 353 354 354 354 354 353 352 352 351 350 349 349 350 351 348 344 346 346 345 344 343 342 341 340 337 337 337 337 336 333 333 331 331 330 328 327 325 325
353 353 353 354 354 354 354 354 355 356 355 354 353 352 351 350 351 351 350 346 343 343 345 344 344 344 343 342 339 337 338 338 335 332 331 329 329 328 327 325 321 322 321
350 353 354 355 355 355 355 355 355 356 357 356 355 354 351 351 352 352 351 345 344 343 343 344 345 345 343 340 338 338 339 337 334 332 330 329 327 322 319 317 315 314 314
349 352 354 355 356 357 357 356 356 356 357 357 357 355 353 352 352 352 352 348 349 346 345 347 347 344 340 338 338 336 334 334 333 330 328 325 319 318 317 317 314 314 313
347 350 354 354 356 357 357 358 358 358 358 358 358 355 354 352 350 352 353 349 350 348 349 347 344 340 337 335 335 335 334 334 332 329 325 320 318 317 316 314 314 313 311
343 347 349 351 355 356 357 358 359 359 359 359 358 356 354 348 339 334 335 333 341 346 345 338 335 335 335 337 335 335 334 332 330 327 322 317 318 318 317 316 314 311 307
344 344 347 349 346 340 339 347 354 339 355 359 357 355 344 337 338 340 332 332 339 337 334 335 336 335 333 332 332 332 330 328 325 322 318 318 318 318 318 315 312 307 306
342 341 340 338 339 338 338 331 334 338 339 335 334 337 336 335 333 332 331 331 337 341 336 334 333 333 331 329 328 327 326 325 323 319 318 318 318 318 318 313 307 305 304
338 338 338 338 335 334 332 331 331 331 330 330 330 329 328 330 329 331 331 337 339 336 334 333 331 330 330 327 326 325 324 323 321 320 319 319 319 319 315 308 305 303 304
341 340 337 336 335 333 333 333 332 332 331 333 331 330 332 333 332 332 335 338 332 333 333 332 333 333 332 328 324 322 322 321 321 320 320 320 320 314 307 305 303 303 303
340 340 338 334 333 333 333 333 334 332 332 331 331 328 331 334 338 333 333 331 328 329 332 334 334 332 328 324 324 323 322 322 322 322 320 314 309 306 305 303 303 303 303
335 335 334 336 336 334 333 333 333 332 328 326 329 329 323 322 322 327 331 331 330 333 334 333 328 326 325 324 321 321 321 320 317 312 310 308 306 305 303 303 303 303 303
335 333 333 331 330 330 330 329 329 330 330 330 328 325 328 329 326 331 334 332 332 330 328 326 325 323 321 320 319 317 315 314 312 311 308 305 305 304 303 303 303 303 302
336 334 333 332 331 330 328 329 330 330 329 328 326 325 326 330 330 329 326 326 327 326 325 323 319 319 318 315 314 313 313 312 310 307 305 304 305 303 302 303 302 302 301
336 335 333 332 331 331 330 327 327 327 327 327 323 325 327 328 326 326 326 326 324 321 319 318 318 316 315 315 314 312 311 310 308 306 304 304 303 302 302 302 302 302 301
331 332 333 332 331 330 329 326 326 326 325 323 323 323 326 326 326 325 324 322 319 319 319 318 316 315 315 314 313 312 310 309 307 305 304 303 302 302 300 301 302 301 301
327 328 328 327 328 327 329 329 328 328 325 325 326 325 325 323 324 325 324 321 317 318 318 316 315 315 315 314 313 311 310 308 305 303 303 302 302 300 298 297 300 301 300
328 328 328 327 326 328 329 329 328 327 325 324 324 324 324 324 323 322 321 318 317 316 317 316 315 314 314 314 313 311 310 307 304 301 301 301 300 299 297 296 301 301 300
Wind_Speed
40 40 40 39 40 41 44 44 41 39 35 34 31 30 34 33 31 30 29 27 25 22 20 19 17 17 15 14 12 11 11 10 7 5 7 5 6 6 4 6 7 10 14
41 41 42 41 40 41 45 46 43 40 38 36 35 35 35 37 35 35 34 32 30 27 24 22 21 19 18 15 15 14 12 12 9 7 6 6 7 7 7 9 10 11 12
38 39 38 39 38 41 45 46 45 42 41 39 37 36 37 41 39 37 37 35 33 31 29 27 26 23 22 19 19 17 15 13 12 12 9 7 7 6 6 8 8 11 12
38 38 40 41 43 46 47 44 46 46 44 43 43 41 40 41 41 39 40 38 36 34 32 30 29 28 27 23 21 18 16 15 13 13 12 11 9 9 10 12 12 13 10
36 36 40 39 41 42 41 43 44 45 47 46 46 46 45 44 44 44 43 41 40 38 36 33 32 30 27 24 22 21 19 18 17 16 13 12 12 11 11 9 13 15 15
40 42 39 37 39 41 41 42 43 45 44 43 45 47 45 47 48 46 43 42 41 40 39 37 35 30 26 26 25 23 22 21 22 19 19 17 15 12 10 9 11 10 4
42 40 39 40 40 42 40 40 43 43 40 42 41 42 46 47 47 47 45 43 41 40 39 39 37 32 31 28 26 22 22 22 22 20 21 19 16 14 9 10 10 11 12
38 35 35 38 40 37 37 39 41 40 40 40 41 44 42 45 48 49 46 44 41 40 37 37 36 33 30 27 25 22 21 21 21 22 20 18 15 13 12 11 11 11 12
33 34 36 38 38 37 38 41 40 36 37 41 37 37 41 40 45 48 46 45 37 39 37 33 31 28 26 29 25 23 20 18 15 15 15 13 11 12 11 9 9 7 7
34 39 39 40 38 38 42 42 40 36 34 31 33 38 40 40 46 46 46 40 32 30 33 30 25 22 22 20 21 22 20 18 15 12 11 9 8 7 7 8 9 7 6
37 34 36 38 41 44 42 34 33 33 31 31 34 32 36 42 44 46 44 36 33 31 28 29 24 21 18 16 17 18 20 16 13 12 13 11 8 7 6 5 4 4 6
25 27 30 34 35 31 33 30 32 34 34 34 31 30 35 38 43 42 42 46 40 33 29 27 26 22 17 15 14 15 16 15 15 15 13 11 10 9 9 5 5 5 9
15 22 22 20 20 19 21 22 21 23 26 27 28 28 28 27 30 38 41 50 41 33 26 23 23 24 19 16 15 15 16 17 17 15 15 13 11 9 7 7 6 7 9
13 17 18 17 14 11 12 15 17 20 20 19 21 23 17 18 18 19 12 18 31 19 15 15 18 17 15 16 17 18 18 18 18 16 14 13 11 8 8 8 9 10 10
6 7 9 13 18 21 23 6 5 8 14 22 25 21 21 17 30 36 48 23 3 14 19 20 19 18 19 19 17 18 16 17 17 15 15 13 10 9 10 9 10 11 7
20 19 19 22 24 25 27 29 33 25 24 25 22 15 16 22 46 37 32 33 41 36 34 25 20 20 20 20 18 17 18 19 18 16 13 11 10 10 10 9 10 9 7
23 23 25 24 22 23 25 20 16 22 18 14 7 2 9 11 26 19 44 39 38 37 28 28 29 26 20 17 18 20 21 20 18 16 14 13 12 10 10 10 10 8 6
21 25 24 27 30 28 25 21 18 18 14 17 15 12 13 26 28 37 35 32 34 25 27 27 26 21 19 20 22 21 17 17 16 15 14 13 11 10 10 11 10 8 4
18 16 18 22 22 19 14 14 11 13 12 15 23 14 25 24 26 31 27 27 23 20 22 21 21 20 22 24 21 19 18 17 16 14 14 14 12 11 12 13 11 6 2
11 10 11 12 10 7 8 8 12 14 15 20 21 17 17 24 23 22 21 23 23 24 23 23 22 23 23 20 18 17 15 15 15 16 14 13 13 13 14 11 10 5 0
15 12 15 14 10 10 10 10 10 11 16 18 16 23 24 23 23 24 20 20 25 24 23 23 23 21 19 19 17 16 16 17 16 15 14 14 15 17 14 11 9 4 1
17 12 10 10 8 10 11 9 11 13 13 17 19 24 19 26 27 26 23 22 21 20 21 22 21 23 23 19 15 14 17 17 16 15 15 16 17 16 14 11 8 4 2
17 18 16 12 10 12 11 12 13 14 16 17 19 23 17 17 19 20 19 20 20 19 19 21 26 26 22 18 14 12 13 15 16 15 17 18 19 17 13 11 7 3 2
14 12 12 13 13 13 13 11 8 9 9 8 9 11 17 18 21 21 20 20 19 18 20 23 25 25 23 20 17 14 10 9 12 15 18 20 19 14 12 11 7 3 1
14 15 14 12 14 13 13 11 4 3 2 3 3 6 9 11 14 18 21 22 20 20 23 26 26 26 25 20 17 15 13 13 11 14 18 17 13 11 11 9 7 4 2
12 11 12 8 8 15 18 16 16 14 18 16 15 15 16 16 16 19 23 24 23 23 24 26 27 27 23 21 18 17 15 13 12 14 15 13 12 11 11 9 8 5 4
Wind_Direction
205 205 207 210 213 214 222 229 230 230 231 229 230 233 229 226 221 222 226 229 227 226 225 225 224 224 226 223 223 222 219 210 211 240 228 229 250 243 274 282 271 269 277
203 203 205 209 208 211 220 228 231 229 228 230 230 234 232 226 224 223 224 227 226 226 226 225 223 221 220 219 221 221 216 218 223 233 232 233 243 251 265 277 278 276 276
201 202 204 205 204 210 218 224 229 230 229 228 227 229 228 226 225 223 225 227 227 229 228 226 228 220 222 219 221 226 226 227 232 238 243 250 261 264 280 286 281 284 288
201 201 202 203 204 210 217 218 225 229 229 228 226 228 229 226 227 226 225 227 230 233 234 232 233 227 228 223 224 229 227 226 228 231 242 250 261 271 284 292 299 309 297
200 202 207 205 206 209 210 215 221 224 227 229 228 229 229 228 228 228 227 229 231 233 235 237 236 236 236 234 228 229 228 231 230 227 232 237 240 247 264 288 302 311 300
197 204 205 202 203 208 210 210 216 221 221 222 225 226 224 228 231 232 232 230 233 235 236 238 238 238 242 241 237 237 240 230 230 225 236 242 255 268 274 272 286 290 300
200 205 200 199 202 206 207 207 212 214 214 217 219 220 224 228 230 233 234 235 234 235 239 240 239 236 235 239 239 240 240 243 244 249 244 249 257 270 273 266 259 253 253
205 205 200 198 203 204 205 209 212 211 210 209 215 218 220 227 230 234 234 233 231 234 236 238 241 236 234 238 239 236 239 241 243 243 244 263 264 268 268 264 262 261 269
203 203 202 200 201 201 204 210 212 209 211 212 212 211 215 219 228 232 232 225 220 228 233 234 237 234 233 234 238 227 232 235 236 239 253 255 259 261 254 241 244 250 270
203 205 202 201 201 202 209 211 211 209 214 213 212 216 217 218 229 231 227 215 209 213 228 231 229 230 231 231 225 220 221 224 217 216 220 227 227 227 233 251 262 251 258
207 206 203 203 204 207 209 210 210 208 206 207 212 213 213 220 227 228 222 205 203 204 205 213 214 214 216 219 218 225 231 224 218 213 208 207 201 220 234 178 197 232 252
207 209 210 207 208 213 210 208 204 203 208 203 204 207 214 220 225 226 219 206 210 199 201 209 209 197 189 197 215 227 231 221 202 196 201 189 186 179 188 211 216 257 273
214 219 220 223 226 223 216 212 209 204 205 211 207 211 217 223 210 227 216 204 204 195 202 198 192 179 178 195 213 217 213 203 199 194 189 187 178 181 194 205 240 266 276
214 216 215 209 202 203 216 215 210 211 220 224 222 215 208 190 164 154 122 332 160 171 154 190 180 172 164 192 192 196 200 205 206 192 184 181 182 194 222 237 254 260 282
114 133 126 124 128 103 79 89 162 45 224 212 214 209 161 150 162 150 122 119 180 180 161 177 163 156 153 162 173 181 186 194 192 188 180 184 191 210 235 237 250 256 261
90 94 107 113 121 122 111 84 77 76 67 60 62 89 63 164 152 154 164 163 187 187 180 172 162 179 175 177 177 178 189 194 191 190 188 198 206 221 238 235 247 255 255
109 108 108 112 117 118 114 110 99 78 67 81 49 230 5 110 305 173 173 174 180 173 160 173 175 177 176 185 186 186 194 201 198 200 205 209 214 224 231 232 242 241 255
130 132 131 135 139 138 140 144 133 141 138 143 147 173 187 163 185 211 192 159 159 174 168 171 174 176 184 191 191 192 195 196 199 202 210 212 209 204 220 233 225 234 248
135 142 145 157 164 164 174 183 190 181 189 187 141 205 178 221 187 202 177 156 157 169 176 178 179 185 185 189 194 201 208 194 198 202 201 189 187 204 212 217 227 226 243
130 179 184 183 194 219 240 219 199 196 181 129 133 205 178 155 151 160 166 165 169 171 172 170 173 178 184 191 192 185 179 180 180 186 193 198 188 201 210 216 230 216 211
110 123 132 135 148 150 124 118 137 177 100 118 163 179 162 163 156 160 161 176 176 169 169 171 174 179 181 173 165 172 183 189 193 203 205 199 202 205 209 220 225 217 118
101 109 114 117 127 115 117 134 129 130 136 143 160 164 166 165 162 169 172 170 167 170 177 178 177 169 162 164 171 187 199 202 203 205 210 211 207 203 211 214 214 204 138
102 109 112 122 142 138 139 149 150 158 161 166 166 165 160 167 173 173 173 170 175 182 188 183 171 168 170 168 169 181 198 206 209 210 217 209 197 202 211 212 209 189 113
89 94 112 118 116 110 111 109 118 129 137 143 161 172 176 185 188 184 183 183 183 187 185 181 181 181 181 185 182 176 180 199 216 217 215 202 197 205 215 212 201 176 112
83 98 103 97 100 92 89 94 99 99 165 180 232 273 249 221 205 197 196 195 192 188 188 193 196 199 200 194 188 186 191 207 214 202 194 195 204 211 217 217 201 174 169
61 67 57 48 95 122 122 135 149 166 174 169 182 200 223 225 229 225 211 199 199 198 200 203 208 211 209 205 198 193 194 198 197 195 196 200 209 220 231 213 191 184 192